Location: Unspecified
(35.7250°N, 0.0000°E)
Time: 07:05:19
(UTC+00:00)

Courier 1B Rocket - Pass Details

Date: 18 June 2019
Orbit: 921 x 1202 km, 28.2° (Epoch: 17 July)

Event Time Altitude Azimuth Distance (km) Brightness Sun altitude
Exits shadow 04:04:28 - 205° (SSW) 3,309 7.2 -7.5°
Reaches altitude 10° 04:06:40 10° 193° (SSW) 2,766 6.9 -7.2°
Maximum altitude 04:10:39 17° 156° (SSE) 2,268 6.8 -6.5°
Drops below altitude 10° 04:14:31 10° 118° (ESE) 2,669 7.7 -5.9°
Sets 04:18:06 0° 98° (E) 3,582 8.8 -5.3°
